When you browse on this site, cookies collect data to enhance your experience and personalize the content and advertising you see.
Visit our Privacy Policy to learn more. By continuing to use the site, you agree to this use of cookies and data.
  • In Romania
  • List of Countries
  • For 7 days
  • Water Temperature
  • Satellite Maps
  • Weather Map
  • Weather Widgets
  • user-avatar
    Login

    Hourly Weather Nizwa

    Today, 25 May, Saturday

    Time Temperature Precipitation Wind Pressure Humidity
    00:00 +34°C° 0 mm 2 mps 695 mmHg 22%
    01:00 +31°C° 0 mm 2 mps 694 mmHg 25%
    02:00 +31°C° 0 mm 2 mps 694 mmHg 27%
    03:00 +30°C° 0 mm 1 mps 694 mmHg 29%
    04:00 +30°C° 0 mm 1 mps 694 mmHg 31%
    05:00 +30°C° 0 mm 1 mps 694 mmHg 28%
    06:00 +31°C° 0 mm 1 mps 695 mmHg 25%
    07:00 +32°C° 0 mm 1 mps 695 mmHg 23%
    08:00 +33°C° 0 mm 1 mps 695 mmHg 19%
    09:00 +35°C° 0 mm 1 mps 696 mmHg 16%
    10:00 +36°C° 0 mm 1 mps 696 mmHg 13%
    11:00 +37°C° 0 mm 1 mps 696 mmHg 12%
    12:00 +39°C° 0 mm 1 mps 695 mmHg 11%
    13:00 +40°C° 0 mm 1 mps 695 mmHg 10%
    14:00 +40°C° 0 mm 1 mps 695 mmHg 10%
    15:00 +40°C° 0 mm 1 mps 694 mmHg 10%
    16:00 +40°C° 0 mm 1 mps 694 mmHg 10%
    17:00 +40°C° 0 mm 1 mps 694 mmHg 10%
    18:00 +39°C° 0 mm 1 mps 694 mmHg 10%
    19:00 +39°C° 0 mm 1 mps 694 mmHg 11%
    20:00 +38°C° 0 mm 2 mps 694 mmHg 12%
    21:00 +37°C° 0 mm 3 mps 694 mmHg 14%
    22:00 +36°C° 0 mm 5 mps 694 mmHg 15%
    23:00 +35°C° 0 mm 4 mps 694 mmHg 19%

    Tomorrow, 26 May, Sunday

    Time Temperature Precipitation Wind Pressure Humidity
    00:00 +34°C° 0 mm 3 mps 693 mmHg 23%
    01:00 +32°C° 0 mm 2 mps 693 mmHg 27%
    02:00 +31°C° 0 mm 1 mps 693 mmHg 29%
    03:00 +31°C° 0 mm 1 mps 693 mmHg 30%
    04:00 +30°C° 0 mm 1 mps 693 mmHg 32%
    05:00 +31°C° 0 mm 1 mps 693 mmHg 29%
    06:00 +31°C° 0 mm 1 mps 693 mmHg 26%
    07:00 +32°C° 0 mm 1 mps 694 mmHg 22%
    08:00 +33°C° 0 mm 1 mps 694 mmHg 20%
    09:00 +35°C° 0 mm 1 mps 695 mmHg 18%
    10:00 +37°C° 0 mm 2 mps 695 mmHg 15%
    11:00 +38°C° 0 mm 2 mps 695 mmHg 14%
    12:00 +39°C° 0 mm 2 mps 694 mmHg 13%
    13:00 +40°C° 0 mm 2 mps 694 mmHg 12%
    14:00 +40°C° 0 mm 2 mps 694 mmHg 12%
    15:00 +40°C° 0 mm 2 mps 693 mmHg 11%
    16:00 +40°C° 0 mm 3 mps 693 mmHg 11%
    17:00 +39°C° 0 mm 2 mps 693 mmHg 12%
    18:00 +39°C° 0 mm 1 mps 693 mmHg 12%
    19:00 +39°C° 0 mm 1 mps 693 mmHg 12%
    20:00 +37°C° 0 mm 1 mps 693 mmHg 13%
    21:00 +36°C° 0 mm 1 mps 693 mmHg 13%
    22:00 +36°C° 0 mm 1 mps 694 mmHg 14%
    23:00 +36°C° 0 mm 2 mps 693 mmHg 19%

    Day after tomorrow, 27 May, Monday

    Time Temperature Precipitation Wind Pressure Humidity
    00:00 +34°C° 0 mm 2 mps 693 mmHg 24%
    01:00 +32°C° 0 mm 2 mps 693 mmHg 30%
    02:00 +32°C° 0 mm 2 mps 693 mmHg 33%
    03:00 +31°C° 0 mm 1 mps 693 mmHg 36%
    04:00 +30°C° 0 mm 1 mps 692 mmHg 39%
    05:00 +30°C° 0 mm 1 mps 693 mmHg 37%
    06:00 +31°C° 0 mm 1 mps 693 mmHg 35%
    07:00 +31°C° 0 mm 1 mps 694 mmHg 33%
    08:00 +32°C° 0 mm 1 mps 694 mmHg 28%
    09:00 +34°C° 0 mm 1 mps 694 mmHg 22%
    10:00 +35°C° 0 mm 1 mps 695 mmHg 16%
    11:00 +38°C° 0 mm 2 mps 695 mmHg 14%
    12:00 +39°C° 0 mm 2 mps 694 mmHg 13%
    13:00 +40°C° 0 mm 2 mps 694 mmHg 12%
    14:00 +40°C° 0 mm 2 mps 694 mmHg 12%
    15:00 +40°C° 0 mm 3 mps 693 mmHg 11%
    16:00 +42°C° 0 mm 3 mps 693 mmHg 11%
    17:00 +40°C° 0 mm 2 mps 693 mmHg 11%
    18:00 +40°C° 0 mm 2 mps 693 mmHg 12%
    19:00 +39°C° 0 mm 2 mps 693 mmHg 12%
    20:00 +38°C° 0 mm 2 mps 694 mmHg 13%
    21:00 +38°C° 0 mm 3 mps 694 mmHg 15%
    22:00 +37°C° 0 mm 3 mps 694 mmHg 16%
    23:00 +36°C° 0 mm 3 mps 694 mmHg 23%

    28 May, Tuesday

    Time Temperature Precipitation Wind Pressure Humidity
    00:00 +35°C° 0 mm 2 mps 693 mmHg 30%
    01:00 +32°C° 0 mm 2 mps 693 mmHg 36%
    02:00 +32°C° 0 mm 2 mps 693 mmHg 39%
    03:00 +31°C° 0 mm 1 mps 692 mmHg 42%
    04:00 +30°C° 0 mm 1 mps 692 mmHg 45%
    05:00 +31°C° 0 mm 1 mps 693 mmHg 42%
    06:00 +31°C° 0 mm 1 mps 693 mmHg 39%
    07:00 +32°C° 0 mm 1 mps 694 mmHg 36%
    08:00 +33°C° 0 mm 1 mps 694 mmHg 31%
    09:00 +36°C° 0 mm 2 mps 695 mmHg 26%
    10:00 +37°C° 0 mm 2 mps 695 mmHg 21%
    11:00 +38°C° 0 mm 2 mps 695 mmHg 19%
    12:00 +39°C° 0 mm 2 mps 694 mmHg 17%
    13:00 +40°C° 0 mm 3 mps 694 mmHg 16%
    14:00 +40°C° 0 mm 3 mps 694 mmHg 15%
    15:00 +40°C° 0 mm 3 mps 693 mmHg 15%
    16:00 +42°C° 0 mm 3 mps 693 mmHg 14%
    17:00 +40°C° 0 mm 2 mps 693 mmHg 15%
    18:00 +40°C° 0 mm 2 mps 693 mmHg 15%
    19:00 +39°C° 0 mm 2 mps 693 mmHg 16%
    20:00 +38°C° 0 mm 3 mps 693 mmHg 18%
    21:00 +37°C° 0 mm 4 mps 694 mmHg 20%
    22:00 +36°C° 0 mm 4 mps 694 mmHg 23%
    23:00 +35°C° 0 mm 3 mps 693 mmHg 29%

    29 May, Wednesday

    Time Temperature Precipitation Wind Pressure Humidity
    00:00 +34°C° 0 mm 3 mps 693 mmHg 35%
    01:00 +32°C° 0 mm 2 mps 693 mmHg 42%
    02:00 +31°C° 0 mm 1 mps 692 mmHg 45%
    03:00 +31°C° 0 mm 1 mps 692 mmHg 47%
    04:00 +30°C° 0 mm 1 mps 692 mmHg 50%
    05:00 +30°C° 0 mm 1 mps 693 mmHg 49%
    06:00 +31°C° 0 mm 1 mps 693 mmHg 47%
    07:00 +31°C° 0 mm 1 mps 693 mmHg 46%
    08:00 +32°C° 0 mm 1 mps 694 mmHg 39%
    09:00 +34°C° 0 mm 1 mps 694 mmHg 33%
    10:00 +37°C° 0 mm 2 mps 694 mmHg 27%
    11:00 +38°C° 0 mm 2 mps 694 mmHg 24%
    12:00 +39°C° 0 mm 3 mps 694 mmHg 22%
    13:00 +40°C° 0 mm 3 mps 693 mmHg 19%
    14:00 +40°C° 0 mm 3 mps 693 mmHg 19%
    15:00 +40°C° 0 mm 3 mps 693 mmHg 18%
    16:00 +40°C° 0 mm 3 mps 692 mmHg 18%
    17:00 +40°C° 0 mm 2 mps 692 mmHg 18%
    18:00 +39°C° 0 mm 2 mps 693 mmHg 18%
    19:00 +39°C° 0 mm 1 mps 693 mmHg 18%
    20:00 +38°C° 0 mm 2 mps 693 mmHg 19%
    21:00 +38°C° 0 mm 3 mps 693 mmHg 20%
    22:00 +37°C° 0 mm 4 mps 693 mmHg 21%
    23:00 +36°C° 0 mm 3 mps 693 mmHg 26%

    30 May, Thursday

    Time Temperature Precipitation Wind Pressure Humidity
    00:00 +35°C° 0 mm 3 mps 692 mmHg 32%
    01:00 +32°C° 0 mm 2 mps 692 mmHg 37%
    02:00 +32°C° 0 mm 2 mps 692 mmHg 39%
    03:00 +31°C° 0 mm 1 mps 692 mmHg 42%
    04:00 +31°C° 0 mm 1 mps 692 mmHg 44%
    05:00 +31°C° 0 mm 1 mps 692 mmHg 43%
    06:00 +31°C° 0 mm 1 mps 693 mmHg 43%
    07:00 +31°C° 0 mm 1 mps 693 mmHg 42%
    08:00 +33°C° 0 mm 1 mps 694 mmHg 37%
    09:00 +35°C° 0 mm 2 mps 694 mmHg 32%
    10:00 +36°C° 0 mm 2 mps 694 mmHg 27%
    11:00 +37°C° 0 mm 2 mps 694 mmHg 25%
    12:00 +38°C° 0 mm 3 mps 693 mmHg 23%
    13:00 +39°C° 0 mm 3 mps 693 mmHg 20%
    14:00 +40°C° 0 mm 3 mps 692 mmHg 20%
    15:00 +40°C° 0 mm 2 mps 692 mmHg 19%
    16:00 +40°C° 0 mm 2 mps 691 mmHg 19%
    17:00 +39°C° 0 mm 2 mps 692 mmHg 19%
    18:00 +39°C° 0 mm 1 mps 692 mmHg 20%
    19:00 +39°C° 0 mm 1 mps 692 mmHg 20%
    20:00 +38°C° 0 mm 2 mps 692 mmHg 20%
    21:00 +38°C° 0 mm 2 mps 693 mmHg 21%
    22:00 +37°C° 0 mm 2 mps 693 mmHg 21%
    23:00 +36°C° 0 mm 2 mps 692 mmHg 24%
    Show more